Location: Rock River
(41.7433°N, 105.9768°W)
Time: 05:49:23
(UTC+00:00)

Vanguard 1 - Pass Details

Date: 04 June 2022
Orbit: 649 x 3833 km, 34.2° (Epoch: 04 July)

Event Time Altitude Azimuth Distance (km) Brightness Sun altitude
Rises 07:45:00 0° 256° (WSW) 4,595 13.3 -25.1°
Reaches altitude 10° 07:47:29 10° 253° (WSW) 3,917 12.8 -25.0°
Maximum altitude 07:58:24 65° 174° (S) 2,677 11.9 -24.5°
Drops below altitude 10° 08:18:05 10° 99° (E) 6,624 14.4 -23.5°
Sets 08:23:52 0° 98° (E) 7,865 14.8 -23.1°
